Location: Beeston
(52.7000°N, 0.8167°E)
Time: 08:21:41
(UTC+00:00)

Cosmos 2058 Rocket - Pass Details

Date: 15 May 2026
Orbit: 604 x 632 km, 82.5° (Epoch: 6 June)

Event Time Altitude Azimuth Distance (km) Brightness Sun altitude
Exits shadow 22:30:59 27° 183° (S) 1,163 3.9 -16.1°
Maximum altitude 22:33:16 81° 99° (E) 621 2.9 -16.2°
Drops below altitude 10° 22:37:37 10° 13° (NNE) 1,966 6.5 -16.4°
Sets 22:39:51 0° 12° (NNE) 2,873 7.5 -16.5°
